Current Version              Previous Version:    01  02  03  04  05  06  07  08  09  10  11  12  13  14  15  16  17  18  19  20  21  22  23  24  25  26  27  28  29  30  
   31  32  33  34  35  36  37  38  39  40  41  42  43  44  45  46  47  48  49  50  51  52  53  54  55  56  57  58  59  60  

[Printable]
757
ASUS44 KEWX 012110
RWRTX
SOUTH TEXAS REGIONAL WEATHER ROUNDUP
NATIONAL WEATHER SERVICE AUSTIN/SAN ANTONIO TX
400 PM CDT FRI AUG 01 2014

NOTE: "FAIR" INDICATED FEW OR NO CLOUDS BELOW 12,000 FEET WITH NO
SIGNIFICANT WEATHER AND/OR OBSTRUCTIONS TO VISIBILITY.

* - THESE STATIONS ARE NOT NWS OR FAA STATIONS...AND ARE NOT SUBJECT
    TO NWS AND FAA QUALITY CONTROL.

TXZ171-172-183>190-012200-
TEXAS HILL COUNTRY AND EDWARDS PLATEAU

CITY           SKY/WX    TMP DP  RH WIND       PRES   REMARKS
JUNCTION       MOSUNNY   90  59  35 N9        30.03F
*LLANO         MOSUNNY   90  61  37 N10       30.04F
BURNET         SUNNY     85  62  46 NE13G20   30.05F
*HORSESHOE BAY MOSUNNY   89  59  36 NE7G16    30.01F
*KERRVILLE     MOSUNNY   92  58  32 NE14      30.01F HX  90
*FREDERICKSBRG MOSUNNY   89  56  33 NE12      30.03F
*ROCKSPRINGS   MOSUNNY   91  57  31 N7        30.06F HX  90
*BOERNE STAGE  PTSUNNY   88  61  40 E5        30.01F
*CASTROVILLE   PTSUNNY   92  62  35 E8        29.97F HX  93
HONDO          CLOUDY    92  67  43 VRB7      29.98F HX  95
*UVALDE        PTSUNNY   93  71  47 N8        29.97F HX  99
DEL RIO        MOSUNNY   95  67  39 NW10G18   29.97F HX  99
LAUGHLIN AFB   MOSUNNY   94  67  42 N10       29.97F HX  97
CARRIZO SPRGS  MOSUNNY   97  68  38 N9        29.91F HX 101
$$

TXZ173-191>194-202-209-217>225-228-012200-
CENTRAL AND SOUTH CENTRAL TEXAS

CITY           SKY/WX    TMP DP  RH WIND       PRES   REMARKS
GEORGETOWN     PTSUNNY   84  64  51 N13G18    30.01F
AUSTIN/BERGSTM MOSUNNY   91  65  41 N9G18     29.97F HX  93
AUSTIN/MABRY   MOSUNNY   90  66  45 N6        29.99F HX  92
*AUSTIN/EXEC   MOSUNNY   86  64  48 N13       29.99F
*LAGO VISTA    MOSUNNY   88  62  41 N10G16    30.03F
SAN MARCOS     MOSUNNY   90  64  43 N6        29.98F HX  91
NEW BRAUNFELS  PTSUNNY   90  64  42 MISG      29.95F HX  91
RANDOLPH AFB   PTSUNNY   91  65  42 N8        29.97F HX  92
PT SAN ANTONIO PTSUNNY   92  67  43 N10       29.95F HX  95
SAN ANTONIO    PTSUNNY   91  66  43 NE8       29.98F HX  93
STINSON FIELD  PTSUNNY   93  66  40 CALM      29.94F HX  96
*PLEASANTON    PTSUNNY   92  67  43 CALM      29.94F HX  96
*LA GRANGE     MOSUNNY   89  72  56 NW6       29.94F HX  96
*GIDDINGS      MOSUNNY   88  64  44 N9        30.00F
*GONZALES      MOSUNNY   92  68  45 NW6       29.94F HX  95
$$

TXZ163>164-176>182-195>201-210>213-226-227-235-012200-
SOUTHEAST TEXAS

CITY           SKY/WX    TMP DP  RH WIND       PRES   REMARKS
COLLEGE STN    MOSUNNY   85  69  58 N12       29.98F
*BRYAN         CLOUDY    83  70  66 N13       29.99F
*CALDWELL      MOSUNNY   86  68  54 N13       30.01F
*CROCKETT      MOSUNNY   81  72  74 NW7       30.03F
*BRENHAM       MOSUNNY   84  69  59 N7        29.97F
HUNTSVILLE     CLOUDY    79  70  74 VRB6      29.99F
CONROE         MOSUNNY   84  70  62 NW10      29.97F
HOUSTON BUSH   PTSUNNY   86  70  58 N10       29.95F HX  90
HOUSTON HOBBY  PTSUNNY   88  71  57 W10       29.94F HX  94
*HOUSTON SW AP   N/A     88  71  56 W9G16     29.95F HX  94
PEARLAND       MOSUNNY   89  71  55 NW9       29.95F HX  95
HOUSTON HOOKS  PTSUNNY   85  71  63 NW8       29.96F HX  90
ELLINGTON FLD  PTSUNNY   91  72  52 W8        29.96  HX  98
SUGAR LAND     CLOUDY    86  73  65 N9        29.95F HX  93
*HOUSTON EXEC  MOSUNNY   86  70  58 NW10      29.97F HX  90
*CLEVELAND MUN MOSUNNY   85  71  64 NW10G17   29.97F HX  90
*WHARTON       PTSUNNY   87  72  60 NW12      29.95F HX  94
$$

TXZ214>216-236>238-012200-
THE UPPER TEXAS COAST

CITY           SKY/WX    TMP DP  RH WIND       PRES   REMARKS
*ORANGE        PTSUNNY   86  75  69 NW6       29.94F HX  94
PORT ARTHUR    MOSUNNY   88  74  63 NW10G18   29.92F HX  96
GALVESTON      MOSUNNY   89  75  63 SW15      29.94F HX  99
ANGLETON       CLOUDY    85  75  72 S7        29.94F HX  93
*BAY CITY      CLOUDY    88  77  69 S12       29.94F HX  99
PALACIOS       TSTM      80  76  87 S12       29.94S FOG
$$

TXZ229>234-239>247-012200-
TEXAS COASTAL BEND AND RIO GRANDE PLAINS

CITY           SKY/WX    TMP DP  RH WIND       PRES   REMARKS
VICTORIA       PTSUNNY   97  72  44 N8        29.92F HX 105
*BEEVILLE      MOSUNNY   98  66  35 E3        29.90F HX 101
ROCKPORT       MOSUNNY   91  75  59 SE12      29.91F HX 101
*PORT ARANSAS  MOSUNNY   88  77  70 SE9       29.93F HX  99
*PORT LAVACA   MOSUNNY   89  78  70 SE10      29.92F HX 102
*INGLESIDE     MOSUNNY   94  73  49 S12G17    29.92F HX 102
CORPUS CHRISTI PTSUNNY   95  73  48 E9        29.90F HX 104
CORPUS NAS     CLOUDY    89  77  67 SE16      29.92F HX 101
*ROBSTOWN      NOT AVBL
ALICE          MOSUNNY   99  70  38 VRB3      29.89F HX 106
KINGSVILLE NAS CLOUDY    95  76  53 SE9       29.90F HX 108
COTULLA        SUNNY     99  67  35 NE16      29.91F HX 103
*FAITH RANCH   MOSUNNY   97  68  38 SE6       29.94F HX 101
LAREDO         SUNNY    100  67  34 VRB3      29.91F HX 104
$$

TXZ248>255-012200-
DEEP SOUTH TEXAS

CITY           SKY/WX    TMP DP  RH WIND       PRES   REMARKS
BROWNSVILLE    MOSUNNY   94  74  52 S17G24    29.90F HX 104
PORT ISABEL    MOSUNNY   93  76  57 E21G29    29.90F HX 105
*SOUTH PADRE   SUNNY     90  81  74 SE13      29.92F HX 108
HARLINGEN      MOSUNNY   98  70  40 SE15      29.87F HX 105
*HEBBRONVILLE  MOSUNNY   97  64  33 E5        29.91F HX  99
MCALLEN        MOSUNNY  101  67  32 E7        29.87F HX 106
*WESLACO       MOSUNNY  101  67  32 E6        29.87F HX 105
FALFURRIAS     MOSUNNY   86  62  44 SE7       29.90F
EDINBURG       MOSUNNY  101  65  30 E9        29.87F HX 104
*ZAPATA        MOSUNNY  101  63  28 E10       29.86F HX 103
$$

TXZ213>215-236>238-242>244-246-247-251-254-255-012200-
CMAN STATIONS

STATION/POSITION TIME  TEMP    WIND        PRES    WAVE
                       AIR SEA DIR/SP/G            HT/PER
                 (UTC) (F)     (DEG/KT/KT) (MB)    (FT/S)
SABINE PASS      2100   85 87  220/  7/ 13 1013.2
SEA RIM ST PARK  2100   84     230/ 15/ 19 1013.7
NORTH JETTY/GLS  2100   80 90  250/ 14/ 18   N/A
EAGLE POINT      2100   88 86  310/  6/ 11 1013.7
MORGANS POINT    2100   85 92  320/  9/ 11 1013.8
MISSION/ARANSAS  2000   84     150/ 14     1015.0
PORT O`CONNOR    2100          170/ 12/ 14   N/A
PORT ARANSAS     2100   82 85  110/  8/  9 1014.4
MALAQUITE BEACH  2100   80 81  100/  8/  9 1012.9
BAFFIN BAY       2100   84 87  110/ 10/ 14 1013.2
PORT ISABEL      2100   86 83  120/ 16/ 20 1013.5
$$

GMZ080-GMZ150>470-012200-
OFFSHORE BUOY REPORTS

STATION/POSITION TIME  TEMP    WIND        PRES    WAVE
                       AIR SEA DIR/SP/G            HT/PER
                 (UTC) (F)     (DEG/KT/KT) (MB)    (FT/S)
20 E GALVESTON   2100   85     230/  8/ 10   N/A
90 E PT ARANSAS  2100   84 86  310/  4/  4 1014.8    3/ 6
35 NE PT MANSFLD 2100   84 85  150/ 12/ 14 1013.3    2/ 6
200 E PT ISABEL  2100   86 88  310/  2/  4 1014.5    1/ 4
$$